Terug naar catalogus

STARLINK-37108

ActiefCommunicatieSSO
NORAD 68218·PAYLOAD·🇺🇸 United States

Gelanceerd Mar 17, 2026 vanaf Vandenberg Space Force Base

Loading…

Volgende Passages (komende 24 uur)

TLE

VersSource: CelesTrak SupGP

Epoch: Sep 15, 2026, 03:28 UTC

1 68218C 26053M   26258.14493056  .00029492  00000+0  91519-3 0  2587
2 68218  97.2846 131.9893 0002114  94.8783 210.3735 15.33433747    16

Volg STARLINK-37108 in realtime met AllMySat

Download on the App Store